Location: Flensburg
(54.6357°N, 9.5142°E)
Time: 19:35:37
(UTC+01:00)

ISS - Pass Details

Date: 12 February 2018
Orbit: 402 x 407 km, 51.6° (Epoch: 24 February)

Event Time Altitude Azimuth Distance (km) Brightness Sun altitude
Rises 18:31:20 0° 273° (W) 2,321 1.9 -10.3°
Reaches altitude 10° 18:34:27 10° 241° (WSW) 1,458 0.2 -10.8°
Maximum altitude 18:35:45 12° 217° (SW) 1,348 -0.5 -10.9°
Drops below altitude 10° 18:37:02 10° 194° (SSW) 1,455 -0.7 -11.1°
Sets 18:40:09 0° 161° (SSE) 2,310 -0.1 -11.6°
